Date String (YYYY-MM-DD hh:mm:ss) UTC,Instrument flags,absolute air pressure of the measurement (hPa),sample flow rate (lpm),inlet stack bypass flow (lpm),air temperature of the measurement (°C),ambient temperature measured by the external sensor (°C),aerosol sample conditioner tube jacket temperature (°C),OPC LED temperature (°C),internal box temperature (°C),relative humidity of the measurement (%),span deviation,mass concentration of particles derived from Lorenz-Mie calculation of OPC scattering (μg/m³),mass concentration of particles derived from Lorenz-Mie calculation of OPC scattering (μg/m³),mass concentration of particles derived from Lorenz-Mie calculation of OPC scattering (μg/m³)
DateTimeUTC,F1_M11,P_M11,Q1_M11,Q2_M11,T1_M11,T2_M11,T3_M11,T4_M11,T5_M11,U1_M11,ZSPAN_M11,X0_M11,X2_M11,X1_M11
2024-06-11 10:00:00,SystemResetWarning,0831.3,5.00,000.00,031.2,030.4,000.0,039.7,032.9,025.7,0000.0,0018.41,0005.77,0004.63
2024-06-11 10:01:00,SystemResetWarning,0831.3,5.01,000.00,031.2,030.4,000.0,039.6,032.9,025.8,0000.0,0018.50,0005.75,0004.62
2024-06-11 10:02:00,SystemResetWarning,0831.3,5.00,000.00,031.2,030.4,000.0,039.6,032.9,025.7,0000.0,0018.27,0005.74,0004.62
2024-06-11 10:03:00,SystemResetWarning,0831.3,5.01,000.00,031.2,030.4,000.0,039.7,032.9,026.0,0000.0,0016.56,0005.74,0004.61
2024-06-11 10:04:00,SystemResetWarning,0831.3,5.00,000.00,031.2,030.4,000.0,039.6,032.9,026.4,0000.0,0016.36,0005.72,0004.61
2024-06-11 10:05:00,SystemResetWarning,0831.3,5.00,000.00,031.2,030.4,000.0,039.7,032.9,026.6,0000.0,0016.27,0005.74,0004.60
2024-06-11 10:06:00,SystemResetWarning,0831.3,5.00,000.00,031.2,030.4,000.0,039.6,032.9,026.5,0000.0,0015.78,0005.69,0004.59
2024-06-11 10:07:00,SystemResetWarning,0831.3,5.00,000.00,031.2,030.4,000.0,039.7,032.9,026.7,0000.0,0014.19,0005.68,0004.58
2024-06-11 10:08:00,SystemResetWarning,0831.4,5.00,000.00,031.2,030.4,000.0,039.7,032.9,026.8,0000.0,0014.24,0005.67,0004.57
2024-06-11 10:09:00,SystemResetWarning,0831.3,4.99,000.00,031.2,030.4,000.0,039.7,032.9,026.9,0000.0,0013.71,0005.69,0004.58
2024-06-11 10:10:00,SystemResetWarning,0831.4,5.00,000.00,031.2,030.4,000.0,039.7,032.9,026.9,0000.0,0013.56,0005.68,0004.58
2024-06-11 10:11:00,SystemResetWarning,0831.4,5.00,000.00,031.2,030.4,000.0,039.7,032.9,026.9,0000.0,0013.03,0005.63,0004.58
2024-06-11 10:12:00,SystemResetWarning,0831.5,5.00,000.00,031.2,030.4,000.0,039.7,032.9,027.1,0000.0,0012.09,0005.54,0004.56
2024-06-11 10:13:00,SystemResetWarning,0831.4,5.00,000.00,031.2,030.4,000.0,039.7,032.9,027.2,0000.0,0011.68,0005.52,0004.56
2024-06-11 10:14:00,SystemResetWarning,0831.5,5.00,000.00,031.2,030.4,000.0,039.7,032.9,027.2,0000.0,0011.99,0005.55,0004.58
2024-06-11 10:15:00,SystemResetWarning,0831.5,5.00,000.00,031.2,030.4,000.0,039.7,032.9,027.2,0000.0,0012.12,0005.55,0004.58
2024-06-11 10:16:00,SystemResetWarning,0831.5,5.00,000.00,031.2,030.5,000.0,039.7,032.9,027.2,0000.0,0012.87,0005.58,0004.58
2024-06-11 10:17:00,SystemResetWarning,0831.5,5.00,000.00,031.2,030.5,000.0,039.7,032.9,027.4,0000.0,0013.76,0005.57,0004.58
2024-06-11 10:18:00,SystemResetWarning,0831.5,4.99,000.00,031.2,030.5,000.0,039.7,032.9,027.5,0000.0,0014.56,0005.57,0004.58
2024-06-11 10:19:00,SystemResetWarning,0831.5,4.99,000.00,031.2,030.5,000.0,039.7,032.9,027.7,0000.0,0014.59,0005.60,0004.59
2024-06-11 10:20:00,SystemResetWarning,0831.5,5.00,000.00,031.2,030.5,000.0,039.7,032.9,027.8,0000.0,0014.44,0005.62,0004.59
2024-06-11 10:21:00,SystemResetWarning,0831.5,5.00,000.00,031.2,030.5,000.0,039.7,033.0,027.9,0000.0,0014.73,0005.70,0004.60
2024-06-11 10:22:00,SystemResetWarning,0831.5,5.00,000.00,031.2,030.5,000.0,039.7,032.9,028.0,0000.0,0015.82,0005.78,0004.62
2024-06-11 10:23:00,SystemResetWarning,0831.5,5.01,000.00,031.2,030.5,000.0,039.7,032.9,028.0,0000.0,0016.24,0005.87,0004.65
2024-06-11 10:24:00,SystemResetWarning,0831.5,5.00,000.00,031.3,030.5,000.0,039.7,033.0,028.1,0000.0,0016.20,0005.93,0004.67
2024-06-11 10:25:00,SystemResetWarning,0831.5,4.99,000.00,031.3,030.5,000.0,039.7,033.0,028.2,0000.0,0015.84,0005.91,0004.67
2024-06-11 10:26:00,SystemResetWarning,0831.5,5.00,000.00,031.3,030.5,000.0,039.7,033.0,028.4,0000.0,0015.55,0005.90,0004.68
2024-06-11 10:27:00,SystemResetWarning,0831.5,5.01,000.00,031.3,030.5,000.0,039.7,033.0,028.9,0000.0,0015.39,0005.86,0004.70
2024-06-11 10:28:00,SystemResetWarning,0831.5,5.01,000.00,031.3,030.5,000.0,039.7,033.0,029.0,0000.0,0014.63,0005.92,0004.73
2024-06-11 10:29:00,SystemResetWarning,0831.5,5.01,000.00,031.3,030.5,000.0,039.7,033.0,029.0,0000.0,0013.75,0005.95,0004.76
2024-06-11 10:30:00,SystemResetWarning,0831.5,5.00,000.00,031.3,030.5,000.0,039.7,033.0,029.1,0000.0,0013.61,0005.98,0004.78
2024-06-11 10:31:00,SystemResetWarning,0831.5,4.99,000.00,031.3,030.5,000.0,039.7,033.0,029.2,0000.0,0013.49,0005.99,0004.80
2024-06-11 10:32:00,SystemResetWarning,0831.5,4.99,000.00,031.3,030.5,000.0,039.7,033.0,029.3,0000.0,0012.84,0005.98,0004.82
2024-06-11 10:33:00,SystemResetWarning,0831.5,4.99,000.00,031.3,030.5,000.0,039.7,033.0,029.3,0000.0,0011.98,0005.97,0004.83
2024-06-11 10:34:00,SystemResetWarning,0831.5,5.01,000.00,031.3,030.5,000.0,039.7,033.0,029.4,0000.0,0011.81,0005.97,0004.83
2024-06-11 10:35:00,SystemResetWarning,0831.5,5.00,000.00,031.3,030.5,000.0,039.7,033.0,029.5,0000.0,0011.84,0005.92,0004.83
2024-06-11 10:36:00,SystemResetWarning,0831.6,5.01,000.00,031.3,030.5,000.0,039.7,033.0,029.5,0000.0,0011.57,0005.88,0004.83
2024-06-11 10:37:00,SystemResetWarning,0831.6,5.00,000.00,031.3,030.5,000.0,039.7,033.0,029.5,0000.0,0011.46,0005.87,0004.83
2024-06-11 10:38:00,SystemResetWarning,0831.6,5.00,000.00,031.3,030.5,000.0,039.7,033.0,029.5,0000.0,0010.83,0005.88,0004.82
2024-06-11 10:39:00,SystemResetWarning,0831.6,5.00,000.00,031.3,030.5,000.0,039.7,033.0,029.5,0000.0,0010.60,0005.79,0004.80
2024-06-11 10:40:00,SystemResetWarning,0831.6,5.00,000.00,031.3,030.5,000.0,039.7,033.0,029.5,0000.0,0010.59,0005.77,0004.78
2024-06-11 10:41:00,SystemResetWarning,0831.6,5.00,000.00,031.3,030.5,000.0,039.8,033.0,029.5,0000.0,0010.89,0005.72,0004.77
2024-06-11 10:42:00,SystemResetWarning,0831.7,5.00,000.00,031.3,030.5,000.0,039.8,033.0,029.5,0000.0,0011.24,0005.67,0004.75
2024-06-11 10:43:00,SystemResetWarning,0831.6,5.00,000.00,031.3,030.5,000.0,039.8,033.0,029.5,0000.0,0012.37,0005.67,0004.74
2024-06-11 10:44:00,SystemResetWarning,0831.7,5.00,000.00,031.3,030.5,000.0,039.8,033.0,029.5,0000.0,0012.37,0005.64,0004.74
2024-06-11 10:45:00,SystemResetWarning,0831.7,5.00,000.00,031.3,030.5,000.0,039.8,033.0,029.5,0000.0,0012.21,0005.59,0004.73
2024-06-11 10:46:00,SystemResetWarning,0831.7,5.01,000.00,031.3,030.5,000.0,039.8,033.0,029.5,0000.0,0011.96,0005.54,0004.73
2024-06-11 10:47:00,SystemResetWarning,0831.7,4.99,000.00,031.3,030.6,000.0,039.8,033.0,029.5,0000.0,0012.06,0005.60,0004.75
2024-06-11 10:48:00,SystemResetWarning,0831.9,4.99,000.00,031.3,030.6,000.0,039.8,033.0,029.6,0000.0,0012.61,0005.62,0004.77
2024-06-11 10:49:00,SystemResetWarning,0832.2,4.99,000.00,031.3,030.6,000.0,039.8,033.0,029.6,0000.0,0012.71,0005.60,0004.79
2024-06-11 10:50:00,SystemResetWarning,0832.1,5.01,000.00,031.3,030.6,000.0,039.8,033.0,029.7,0000.0,0013.18,0005.63,0004.81
2024-06-11 10:51:00,SystemResetWarning,0832.1,5.00,000.00,031.3,030.6,000.0,039.8,033.0,029.7,0000.0,0013.33,0005.63,0004.84
2024-06-11 10:52:00,SystemResetWarning,0831.9,5.01,000.00,031.3,030.6,000.0,039.8,033.0,029.8,0000.0,0012.92,0005.71,0004.87
2024-06-11 10:53:00,SystemResetWarning,0831.8,5.00,000.00,031.3,030.6,000.0,039.8,033.0,029.8,0000.0,0012.25,0005.75,0004.89
2024-06-11 10:54:00,SystemResetWarning,0832.3,4.99,000.00,031.3,030.6,000.0,039.8,033.0,029.8,0000.0,0011.04,0005.75,0004.92
2024-06-11 10:55:00,SystemResetWarning,0832.2,5.00,000.00,031.3,030.6,000.0,039.8,033.0,029.8,0000.0,0010.91,0005.74,0004.95
2024-06-11 10:56:00,SystemResetWarning,0832.3,5.00,000.00,031.3,030.6,000.0,039.8,033.0,029.8,0000.0,0010.86,0005.77,0004.98
2024-06-11 10:57:00,SystemResetWarning,0831.7,5.00,000.00,031.3,030.6,000.0,039.8,033.0,029.7,0000.0,0011.21,0005.82,0005.00
2024-06-11 10:58:00,SystemResetWarning,0831.7,5.00,000.00,031.3,030.6,000.0,039.8,033.0,029.7,0000.0,0011.36,0005.80,0005.01
2024-06-11 10:59:00,SystemResetWarning,0831.8,5.01,000.00,031.3,030.6,000.0,039.8,033.0,029.7,0000.0,0010.91,0005.82,0005.02
